Погода в Дегтярном

Россия / Воронежская область     50°38′32″N   39°16′17″E
темп.,
°C
ветер,
м/с
пор.,
м/с
влажн.,
%
обл.,
%
осадки,
мм/ч
давл.,
гПа
погр.,
м
19 мая, ср
ср1900:00+13ююв369590 0.0 1006137
03:00+12ю37951 0.0 1007152
06:00+12ююв4994100 0.2 1008342
09:00+16ююв5781100 0.3 1007820
12:00+18юв5877100 0.6 10071259
15:00+14юв31093100 4.8 1007704
18:00+12ююз5794100 1.4 1007407
21:00+11ююв4119648 1.4 1006416
20 мая, чт
чт2000:00+11ююв511952 0.1 1006323
03:00+10ююв5109888 0.1 1006345
06:00+12ююв6119699 2.0 1005641
09:00+14юз578382 2.8 1006786
12:00+15ююз6881100 0.5 1008969
15:00+15юз6985100 0.6 1009817
18:00+14зюз598433 0.4 1010576
21:00+11юз399412 0.4 1011194
21 мая, пт
пт2100:00+10юз37964 0.0 1013153
03:00+9юз359555 0.0 101489
06:00+10юз3595100 0.0 1015163
09:00+15зсз347745 0.0 1016622
12:00+18с2161100 0.0 1015912
15:00+19св3359100 0.0 10151064
18:00+18св4672100 0.0 1015384
21:00+15ссв51176100 0.0 1015290
22 мая, сб
сб2200:00+14ссв71287100 0.3 1014325
03:00+13ссв61294100 0.7 1014290
06:00+13св8159497 0.0 1014456
09:00+16св81187100 0.1 1014639
12:00+21св8969100 0.0 10141063
15:00+23св7863100 0.0 10131294
18:00+19св71082100 0.1 1013512
21:00+17св61191100 0.1 1013349
23 мая, вс
вс2300:00+15св51195100 0.0 1011278
03:00+15ссв4794100 0.0 1012183
06:00+15св4991100 0.0 1010217
09:00+22в5869100 0.0 1008388
12:00+26юв5749100 0.0 1007747
15:00+28юв5746100 0.0 10061280
18:00+27ю1261100 0.0 1004163
21:00+21зсз22690 0.0 100411